Wind_Speed
23 22 18 15 14 10 9 11 13 13 14 16 18 20 20 20 20 21 23 24 25 26 26 31 30 32 35 39 44 44 46 47
25 26 20 17 13 13 15 15 15 18 20 20 23 24 24 25 26 28 27 29 28 29 31 34 37 40 44 45 47 48 50 48
23 25 22 17 15 14 15 17 19 22 24 26 27 29 31 30 33 34 35 35 38 37 42 45 42 45 49 50 47 47 45 46
20 26 22 16 13 14 13 16 21 24 27 28 30 33 36 38 39 39 42 43 44 45 45 48 50 52 53 50 50 50 49 46
22 24 24 19 16 17 19 19 20 21 23 30 35 38 40 42 42 45 47 48 49 49 50 50 51 51 49 47 47 46 49 50
25 26 26 24 23 20 19 22 25 26 26 28 29 30 31 35 40 43 45 47 48 48 47 46 45 43 43 47 49 52 55 56
28 30 29 28 26 27 28 23 28 31 30 32 35 34 33 35 36 39 40 38 37 38 41 41 43 44 48 51 55 57 56 57
31 31 33 33 32 31 28 32 33 33 33 37 38 39 39 36 38 38 38 38 42 44 45 46 47 50 54 56 54 53 56 53
33 33 33 34 34 33 32 35 34 34 36 39 41 39 37 34 32 38 39 40 42 46 47 50 53 55 56 53 55 53 54 54
33 34 31 34 32 34 35 35 37 36 39 41 37 31 30 31 34 36 38 42 43 47 50 52 51 52 52 53 52 53 54 55
30 34 35 33 33 32 36 37 38 39 37 34 30 29 32 37 42 44 45 43 47 47 47 49 52 51 50 51 51 54 57 61
32 32 34 32 33 33 35 36 38 30 32 34 34 35 40 43 43 45 43 49 46 47 49 51 50 49 49 50 54 57 61 65
32 36 36 36 35 35 37 29 26 32 37 39 38 40 41 42 43 45 49 47 48 50 50 49 49 49 51 54 55 63 67 69
29 33 34 34 36 36 32 31 37 42 40 40 39 39 40 41 45 48 46 48 49 49 50 47 49 52 54 57 62 65 69 74
30 32 33 34 36 34 34 38 40 45 43 39 37 39 41 46 45 44 47 47 48 49 49 50 50 52 56 59 60 68 70 72
32 35 33 35 35 33 37 42 44 42 40 38 39 42 45 43 44 46 47 48 49 48 49 50 53 55 57 60 65 68 68 68
33 35 36 37 36 37 41 40 39 38 39 39 42 41 44 43 46 47 48 50 49 49 51 53 55 58 60 64 69 71 70 70
34 35 35 35 37 38 37 40 38 40 38 38 39 43 44 45 46 47 49 49 49 51 53 55 58 59 64 68 71 71 72 74
34 36 35 36 37 35 37 40 38 38 37 38 40 44 45 45 48 49 50 51 52 54 54 57 58 62 66 70 71 75 76 77
34 35 35 36 36 37 39 38 37 38 39 40 42 45 44 46 49 50 50 53 54 54 57 58 61 65 69 72 73 76 80 82
Wind_Direction
334 334 318 314 307 256 233 228 219 225 235 240 245 250 255 253 267 277 271 270 265 265 270 272 273 276 283 278 285 290 291 292
329 331 321 309 301 295 274 274 255 247 256 267 266 263 270 275 277 273 280 277 279 279 276 281 274 282 286 288 290 289 289 291
326 324 322 312 308 289 284 282 273 270 268 266 270 270 274 269 279 276 281 280 278 280 279 283 287 287 286 291 294 292 292 291
313 317 312 316 313 318 312 295 279 272 273 275 276 276 275 275 280 279 281 283 283 283 281 284 287 292 295 295 294 292 291 288
305 306 310 305 305 313 311 311 305 301 294 281 275 275 277 280 282 283 284 283 284 284 286 289 293 293 293 294 296 296 296 296
303 302 296 296 300 301 300 306 306 302 302 300 297 290 289 289 287 286 286 287 291 294 294 293 293 294 295 299 300 301 301 300
298 297 297 287 296 299 301 298 302 296 294 299 300 294 292 293 293 293 295 298 300 298 299 296 298 299 301 302 302 302 302 301
295 293 295 293 289 295 293 300 301 300 298 298 297 298 292 290 293 295 294 297 303 302 301 302 301 303 304 304 303 302 300 301
293 294 293 289 290 293 297 297 298 298 296 295 294 293 292 293 293 291 300 306 304 304 302 301 305 306 307 307 306 305 304 301
291 292 291 287 290 293 291 294 297 299 298 298 294 291 291 293 301 306 310 307 306 305 304 304 308 310 307 306 305 303 303 304
292 288 289 292 290 292 293 296 295 297 298 295 291 290 296 302 305 308 310 310 308 307 308 308 307 307 308 306 307 307 309 310
292 293 295 292 294 296 297 298 298 292 301 304 303 299 306 306 305 307 310 309 310 312 309 310 311 311 307 309 310 310 311 310
279 283 289 294 293 299 304 296 292 297 306 304 301 304 306 306 307 309 309 312 314 312 314 314 313 310 312 311 312 313 314 314
283 285 288 292 293 301 302 292 296 300 304 305 306 305 303 305 308 308 312 313 312 316 316 315 314 314 314 312 313 315 312 313
288 290 292 294 296 304 300 294 298 301 307 307 303 300 301 306 311 312 312 313 317 318 315 314 314 313 313 314 313 313 314 317
290 293 297 295 301 302 297 294 298 303 306 305 302 302 306 312 312 312 314 317 318 315 312 314 314 312 311 312 313 314 318 322
290 294 297 299 300 295 295 300 304 302 303 302 303 310 314 311 313 315 317 317 315 311 313 315 314 312 313 314 316 322 326 327
290 294 294 292 294 294 295 300 297 299 303 306 308 310 309 311 313 316 317 314 312 311 315 313 311 314 315 315 321 324 328 328
289 294 291 292 292 293 293 297 297 299 307 308 309 307 309 312 316 317 315 312 312 313 313 312 314 316 316 319 323 327 328 330
282 286 286 290 292 293 294 296 296 301 307 309 306 308 311 315 315 315 313 312 313 313 313 315 317 317 318 322 324 327 330 332
Height
10815 10811 10809 10807 10804 10802 10800 10799 10798 10797 10797 10796 10794 10792 10790 10789 10787 10785 10784 10782 10780 10778 10776 10773 10771 10768 10765 10761 10758 10754 10751 10748
10812 10809 10807 10804 10802 10802 10800 10799 10797 10797 10795 10793 10792 10790 10788 10786 10784 10781 10779 10777 10775 10772 10770 10767 10764 10761 10757 10753 10749 10745 10742 10738
10809 10806 10804 10802 10799 10797 10797 10796 10795 10795 10793 10790 10788 10786 10783 10781 10779 10777 10774 10771 10769 10766 10763 10759 10756 10752 10748 10744 10739 10735 10732 10728
10806 10803 10801 10799 10797 10795 10793 10791 10791 10789 10788 10786 10784 10782 10779 10776 10773 10770 10767 10763 10761 10758 10755 10751 10746 10741 10736 10732 10728 10724 10721 10718
10802 10800 10798 10796 10794 10792 10790 10788 10786 10784 10782 10779 10777 10774 10772 10768 10765 10761 10758 10755 10751 10748 10744 10741 10736 10731 10726 10721 10717 10712 10709 10705
10798 10796 10794 10792 10790 10788 10785 10783 10781 10779 10775 10773 10769 10766 10763 10760 10756 10753 10749 10745 10741 10738 10734 10730 10725 10720 10716 10712 10706 10701 10697 10692
10792 10791 10789 10787 10785 10782 10780 10777 10775 10773 10770 10766 10763 10759 10756 10752 10748 10744 10741 10737 10734 10730 10726 10721 10716 10712 10707 10702 10696 10690 10684 10679
10786 10784 10782 10781 10779 10777 10774 10771 10769 10766 10763 10760 10756 10752 10748 10744 10741 10738 10734 10730 10726 10721 10717 10712 10707 10702 10696 10690 10684 10678 10672 10667
10779 10778 10776 10774 10772 10770 10768 10764 10762 10759 10756 10752 10748 10744 10741 10738 10734 10730 10727 10722 10717 10713 10708 10703 10697 10691 10684 10678 10672 10665 10659 10653
10773 10771 10770 10767 10765 10763 10761 10758 10755 10751 10747 10744 10739 10736 10734 10730 10727 10723 10719 10714 10709 10704 10698 10692 10687 10681 10674 10667 10660 10653 10646 10640
10765 10764 10762 10761 10758 10755 10753 10750 10747 10743 10739 10735 10732 10729 10725 10722 10719 10715 10711 10705 10700 10695 10689 10684 10678 10671 10663 10655 10648 10642 10635 10628
10758 10756 10754 10753 10751 10749 10745 10742 10739 10735 10732 10729 10726 10722 10718 10714 10710 10705 10701 10695 10689 10684 10678 10670 10664 10658 10651 10645 10637 10631 10624 10615
10751 10750 10747 10746 10744 10742 10739 10735 10731 10728 10725 10722 10718 10714 10710 10705 10701 10696 10690 10684 10678 10672 10665 10659 10651 10645 10639 10633 10628 10618 10608 10601
10743 10741 10739 10738 10736 10734 10733 10728 10724 10720 10717 10714 10710 10706 10701 10697 10692 10686 10680 10674 10668 10661 10655 10648 10641 10633 10627 10620 10612 10603 10595 10583
10735 10733 10731 10730 10728 10727 10724 10721 10716 10713 10709 10705 10702 10697 10693 10688 10682 10676 10671 10664 10658 10651 10644 10638 10632 10624 10616 10609 10600 10589 10578 10567
10727 10725 10724 10721 10720 10719 10717 10712 10708 10704 10701 10697 10693 10689 10684 10679 10673 10668 10661 10655 10649 10642 10635 10629 10622 10614 10606 10598 10588 10578 10565 10553
10719 10717 10716 10714 10713 10712 10709 10704 10700 10696 10693 10689 10685 10681 10675 10670 10665 10658 10652 10646 10640 10633 10627 10619 10611 10604 10595 10584 10573 10559 10547 10537
10711 10709 10708 10706 10705 10704 10701 10697 10693 10689 10686 10682 10677 10673 10668 10662 10656 10650 10644 10637 10631 10624 10617 10609 10601 10591 10582 10573 10560 10548 10536 10523
10703 10701 10700 10698 10697 10696 10694 10689 10685 10681 10678 10674 10670 10665 10659 10654 10648 10642 10635 10628 10622 10615 10608 10600 10591 10581 10571 10560 10547 10535 10522 10508
10696 10693 10691 10690 10687 10686 10684 10681 10677 10673 10670 10666 10662 10657 10652 10646 10639 10634 10627 10620 10613 10606 10599 10591 10582 10572 10560 10547 10535 10522 10509 10494